This is the latest recevied weather packets stored in our database for station/object SV5BYP-10. If no packets are shown the sender has not sent any weather packets the latest 10 day(s).
| Time | Temp. | Humidity | Pressure | Rain* | Wind** | Luminosity | Snow |
|---|---|---|---|---|---|---|---|
| 1777943524 | 18.33° C | 49% | 1015 hPa | - | - | - | - |
| 1777942924 | 17.78° C | 49% | 1015.1 hPa | - | - | - | - |
| 1777942324 | 18.33° C | 49% | 1015 hPa | - | - | - | - |
| 1777941724 | 17.78° C | 49% | 1015 hPa | - | - | - | - |
| 1777941123 | 18.33° C | 48% | 1015.1 hPa | - | - | - | - |
| 1777940523 | 18.33° C | 48% | 1015.1 hPa | - | - | - | - |
| 1777939923 | 18.33° C | 48% | 1015.3 hPa | - | - | - | - |
| 1777939323 | 18.33° C | 48% | 1015.3 hPa | - | - | - | - |
| 1777938723 | 18.33° C | 48% | 1015.3 hPa | - | - | - | - |
| 1777938122 | 17.78° C | 49% | 1015.3 hPa | - | - | - | - |
| 1777937522 | 18.33° C | 48% | 1015.2 hPa | - | - | - | - |
| 1777936922 | 18.33° C | 48% | 1015.1 hPa | - | - | - | - |
| 1777936322 | 20.56° C | 42% | 1015.3 hPa | - | - | - | - |
| 1777935122 | 18.33° C | 48% | 1015.4 hPa | - | - | - | - |
| 1777934522 | 18.33° C | 47% | 1015.6 hPa | - | - | - | - |
| 1777933922 | 18.89° C | 47% | 1015.6 hPa | - | - | - | - |
| 1777933321 | 18.33° C | 47% | 1015.8 hPa | - | - | - | - |
| 1777932721 | 18.33° C | 46% | 1015.8 hPa | - | - | - | - |
| 1777932121 | 18.89° C | 46% | 1015.9 hPa | - | - | - | - |
| 1777931521 | 18.89° C | 46% | 1015.9 hPa | - | - | - | - |
| 1777930921 | 18.89° C | 46% | 1016 hPa | - | - | - | - |
| 1777930321 | 18.89° C | 46% | 1016 hPa | - | - | - | - |
| 1777929720 | 18.89° C | 46% | 1016 hPa | - | - | - | - |
| 1777929120 | 18.89° C | 46% | 1016.1 hPa | - | - | - | - |
| 1777928520 | 18.89° C | 45% | 1016 hPa | - | - | - | - |
* Rain since midnight (hover to see other rain measurements)
** Current wind speed in m/s (hover to see current wind gust speed)